Weather observations for the past three days for
Ormond Beach, Ormond Beach Municipal Airport
| Date | Time (edt) | Wind (mph) | Vis. (mi.) | Weather | Sky Cond. | Temperature (ºF) | Relative Humidity | Wind Chill (°F) | Heat Index (°F) | Pressure | Precipitation (in) | ||||||
|---|---|---|---|---|---|---|---|---|---|---|---|---|---|---|---|---|---|
| Air | Dwpt | 6 hour | altimeter (in) | sea level (mb) | 1 hr | 3 hr | 6 hr | ||||||||||
| Max. | Min. | ||||||||||||||||
| 05 | 18:50 | E 9 | 10.00 | Fair | CLR | 77 | 59 | 54% | 79 | 30 | 0.0 | ||||||
| 05 | 17:50 | E 9 | 10.00 | Fair | CLR | 78.8 | 57.2 | 48% | 80 | 30 | 0.0 | ||||||
| 05 | 16:50 | E 13 | 10.00 | Fair | CLR | 78.8 | 55.4 | 45% | 79 | 30 | 0.0 | ||||||
| 05 | 15:50 | E 13 | 10.00 | Fair | CLR | 78.8 | 59 | 51% | 80 | 30.01 | 0.0 | ||||||
| 05 | 14:50 | E 8 | 10.00 | A Few Clouds | FEW075 | 78.8 | 59 | 51% | 80 | 30.03 | 0.0 | ||||||
| 05 | 13:50 | E 8 | 10.00 | A Few Clouds | FEW075 | 78.8 | 62.6 | 58% | 80 | 30.04 | 0.0 | ||||||
| 05 | 12:50 | E 8 | 10.00 | Fair | CLR | 78.8 | 59 | 51% | 80 | 30.05 | 0.0 | ||||||
| 05 | 11:50 | NE 8 | 10.00 | Fair | CLR | 78.8 | 60.8 | 54% | 80 | 30.05 | 0.0 | ||||||
| 05 | 10:50 | E 12 | 10.00 | Fair | CLR | 77 | 62.6 | 61% | 79 | 30.05 | 0.0 | ||||||
| 05 | 09:50 | SE 7 | 10.00 | Fair | CLR | 77 | 62.6 | 61% | 79 | 30.03 | 0.0 | ||||||
| 05 | 08:50 | SE 5 | 10.00 | Fair | CLR | 75.2 | 64.4 | 69% | 77 | 30.03 | 0.0 | ||||||
| 05 | 07:50 | Calm | 10.00 | Fair | CLR | 62.6 | 62.6 | 100% | 30.02 | 0.0 | |||||||
| 05 | 06:50 | Calm | 10.00 | Fair | CLR | 57.2 | 57.2 | 100% | 30 | 0.0 | |||||||
| 04 | 18:50 | SE 10 | 10.00 | Fair | CLR | 75.2 | 57.2 | 54% | 78 | 30 | 0.0 | ||||||
| 04 | 17:50 | E 9 G 15 | 10.00 | Fair | CLR | 77 | 57.2 | 51% | 79 | 30.01 | 0.0 | ||||||
| 04 | 16:50 | E 13 G 20 | 10.00 | A Few Clouds | FEW046 | 77 | 59 | 54% | 79 | 30.01 | 0.0 | ||||||
| 04 | 14:50 | E 12 G 22 | 10.00 | Partly Cloudy | SCT048 | 77 | 59 | 54% | 79 | 30.05 | 0.0 | ||||||
| 04 | 13:50 | E 12 G 17 | 10.00 | Partly Cloudy | SCT048 | 75.2 | 59 | 57% | 78 | 30.06 | 0.0 | ||||||
| 04 | 12:50 | E 10 G 17 | 10.00 | Partly Cloudy | SCT044 | 75.2 | 59 | 57% | 78 | 30.06 | 0.0 | ||||||
| 04 | 11:50 | NE 13 G 21 | 10.00 | Partly Cloudy | SCT044 | 77 | 59 | 54% | 79 | 30.08 | 0.0 | ||||||
| 04 | 10:50 | NE 12 G 21 | 10.00 | Partly Cloudy | SCT038 | 75.2 | 60.8 | 61% | 77 | 30.08 | 0.0 | ||||||
| 04 | 09:50 | NE 12 | 10.00 | Partly Cloudy | SCT040 | 75.2 | 59 | 57% | 78 | 30.06 | 0.0 | ||||||
| 04 | 08:50 | NE 7 | 10.00 | Partly Cloudy | SCT040 | 71.6 | 60.8 | 69% | 30.06 | 0.0 | |||||||
| 04 | 07:50 | Calm | 10.00 | Partly Cloudy | SCT035 | 66.2 | 59 | 78% | 30.05 | 0.0 | |||||||
| 04 | 06:50 | NW 5 | 10.00 | Partly Cloudy | SCT022 | 59 | 57.2 | 94% | 30.03 | 0.0 | |||||||
| 03 | 18:50 | N 9 | 7.00 | Fair | CLR | 71.6 | 59 | 65% | 30.04 | 0.0 | |||||||
| 03 | 17:50 | N 10 G 17 | 7.00 | Fair | CLR | 73.4 | 57.2 | 57% | 30.03 | 0.0 | |||||||
| 03 | 16:50 | N 10 G 17 | 7.00 | Fair | CLR | 75.2 | 59 | 57% | 78 | 30.04 | 0.0 | ||||||
| 03 | 15:50 | N 10 G 17 | 7.00 | A Few Clouds | FEW038 | 75.2 | 57.2 | 54% | 78 | 30.05 | 0.0 | ||||||
| 03 | 14:50 | NE 12 G 18 | 7.00 | A Few Clouds | FEW038 | 73.4 | 59 | 61% | 30.07 | 0.0 | |||||||
| 03 | 13:50 | N 10 G 18 | 7.00 | Partly Cloudy | SCT037 | 73.4 | 59 | 61% | 30.1 | 0.0 | |||||||
| 03 | 12:50 | NE 17 G 23 | 7.00 | Mostly Cloudy | BKN031 | 71.6 | 60.8 | 69% | 30.1 | 0.0 | |||||||
| 03 | 11:50 | NE 17 G 23 | 7.00 | Mostly Cloudy | FEW026 BKN038 | 71.6 | 60.8 | 69% | 30.1 | 0.0 | |||||||
| 03 | 10:50 | NE 17 G 23 | 8.00 | Partly Cloudy | FEW026 SCT034 | 71.6 | 60.8 | 69% | 30.09 | 0.0 | |||||||
| 03 | 09:50 | NE 14 | 8.00 | Mostly Cloudy | BKN028 | 69.8 | 62.6 | 78% | 30.07 | 0.0 | |||||||
| 03 | 08:50 | N 9 | 8.00 | Mostly Cloudy | BKN028 | 64.4 | 64.4 | 100% | 30.05 | 0.0 | |||||||
| 03 | 06:50 | NW 7 | 8.00 | Mostly Cloudy | SCT026 BKN075 | 60.8 | 60.8 | 100% | 30.02 | 0.0 | |||||||
| Date | Time (edt) | Wind (mph) | Vis. (mi.) | Weather | Sky Cond. | Air | Dwpt | Max. | Min. | Relative Humidity | Wind Chill (°F) | Heat Index (°F) | altimeter (in) | sea level (mb) | 1 hr | 3 hr | 6 hr |
| 6 hour | |||||||||||||||||
| Temperature (ºF) | Pressure | Precipitation (in) | |||||||||||||||